Weather History for Olive Branch, MS

Change the Weather History Date:

Wednesday, October 3, 2012

  Actual Average (KMEM) Record (KMEM)
Temperature  
Mean Temperature 62 °F 69 °F  
Max Temperature 75 °F 79 °F 93 °F (1954)
Min Temperature 50 °F 58 °F 38 °F (1974)
Degree Days  
Heating Degree Days 2 2  
Month to date heating degree days 4  
Since 1 July heating degree days 15  
Cooling Degree Days 0 5  
Month to date cooling degree days 16  
Year to date cooling degree days 2167  
Growing Degree Days 12 (Base 50)    
Moisture  
Dew Point 54 °F    
Average Humidity 87    
Maximum Humidity 100    
Minimum Humidity 44    
Precipitation  
Precipitation 0.00 in 0.12 in 2.98 in (1883)
Month to date precipitation 0.36  
Year to date precipitation 38.83  
Snow  
Snow 0.00 in 0.00 in 0.00 in (2002)
Month to date snowfall 0.0  
Since 1 July snowfall 0.0  
Since 1 September snowfall 0.0  
Snow Depth -    
Sea Level Pressure  
Sea Level Pressure 30.05 in    
Wind  
Wind Speed 2 mph (SSW)    
Max Wind Speed 12 mph    
Max Gust Speed 16 mph    
Visibility 9 miles    
Events      
T = Trace of Precipitation, MM = Missing Value Source: NWS Daily Summary

Daily Weather History Graph

Daily Weather History Graph

Search for Another Location

Airport:

Trip Planner

Search our weather history database for the weather conditions in past years. The results will help you decide how hot, cold, wet, or windy it might be!

Date:

Astronomy

Oct. 03, 2012 Rise Set
Actual Time 6:55 AM CDT 6:39 PM CDT
Civil Twilight 6:30 AM CDT 7:04 PM CDT
Nautical Twilight 6:01 AM CDT 7:34 PM CDT
Astronomical Twilight 5:31 AM CDT 8:03 PM CDT
Moon 8:41 PM CDT (10/3) 10:09 AM CDT (10/3)
Length of Visible Light 12h 34m
Length of Day
11h 43m
Waning Gibbous, 88% of the Moon is Illuminated
Oct 3
Waning Gibbous
Oct 8
Last Quarter
Oct 15
New
Oct 21
First Quarter
Oct 29
Full

Hourly Weather History & Observations

Time (CDT) Temp. Dew Point Humidity Pressure Visibility Wind Dir Wind Speed Gust Speed Precip Events Conditions
12:15 AM 53.6 °F 51.8 °F 94% 29.97 in 9.0 mi Calm Calm - 0.00 in   Clear
12:35 AM 51.8 °F 51.8 °F 100% 29.97 in 10.0 mi Calm Calm - 0.00 in   Clear
12:55 AM 51.8 °F 51.8 °F 100% 29.97 in 8.0 mi Calm Calm - 0.00 in   Clear
1:15 AM 53.6 °F 51.8 °F 94% 29.98 in 10.0 mi Calm Calm - 0.00 in   Clear
1:35 AM 51.8 °F 50.0 °F 94% 29.98 in 9.0 mi Calm Calm - 0.00 in   Clear
1:55 AM 50.0 °F 50.0 °F 100% 29.99 in 10.0 mi Calm Calm - 0.00 in   Clear
2:15 AM 51.8 °F 50.0 °F 94% 29.99 in 9.0 mi Calm Calm - 0.00 in   Clear
2:35 AM 51.8 °F 51.8 °F 100% 29.99 in 10.0 mi Calm Calm - 0.00 in   Clear
2:55 AM 51.8 °F 50.0 °F 94% 29.99 in 10.0 mi Calm Calm - 0.00 in   Clear
3:15 AM 51.8 °F 50.0 °F 94% 29.99 in 10.0 mi Calm Calm - 0.00 in   Clear
3:35 AM 51.8 °F 51.8 °F 100% 29.99 in 9.0 mi Calm Calm - 0.00 in   Clear
3:55 AM 51.8 °F 51.8 °F 100% 29.99 in 10.0 mi Calm Calm - 0.00 in   Clear
4:15 AM 50.0 °F 50.0 °F 100% 30.00 in 10.0 mi Calm Calm - 0.00 in   Clear
4:35 AM 51.8 °F 51.8 °F 100% 30.00 in 10.0 mi Calm Calm - 0.00 in   Clear
4:55 AM 50.0 °F 50.0 °F 100% 30.01 in 7.0 mi Calm Calm - N/A   Clear
5:15 AM 50.0 °F 50.0 °F 100% 30.02 in 8.0 mi South 5.8 mph - 0.00 in   Clear
5:35 AM 50.0 °F 50.0 °F 100% 30.03 in 10.0 mi South 6.9 mph - 0.00 in   Clear
5:55 AM 50.0 °F 50.0 °F 100% 30.03 in 9.0 mi Calm Calm - 0.00 in   Clear
6:15 AM 50.0 °F 50.0 °F 100% 30.04 in 10.0 mi Calm Calm - 0.00 in   Clear
6:35 AM 51.8 °F 51.8 °F 100% 30.04 in 6.0 mi Calm Calm - 0.00 in   Clear
6:50 AM 51.8 °F 51.8 °F 100% 30.04 in 8.0 mi Calm Calm - N/A   Partly Cloudy
8:50 AM 59.0 °F 59.0 °F 100% 30.08 in 8.0 mi South 6.9 mph - N/A   Partly Cloudy
9:50 AM 64.4 °F 59.0 °F 83% 30.09 in 10.0 mi South 8.1 mph - N/A   Clear
10:45 AM 69.8 °F 57.2 °F 64% 30.10 in 10.0 mi SW 11.5 mph - N/A   Clear
11:50 AM 73.4 °F 57.2 °F 57% 30.09 in 10.0 mi South 8.1 mph - N/A   Scattered Clouds
12:45 PM 75.2 °F 57.2 °F 53% 30.07 in 10.0 mi SSW 9.2 mph 16.1 mph N/A   Scattered Clouds
1:45 PM 75.2 °F 55.4 °F 50% 30.06 in 10.0 mi SW 6.9 mph 16.1 mph N/A   Scattered Clouds
2:45 PM 75.2 °F 53.6 °F 47% 30.05 in 10.0 mi SW 9.2 mph - N/A   Scattered Clouds
3:50 PM 75.2 °F 51.8 °F 44% 30.04 in 10.0 mi South 9.2 mph - N/A   Scattered Clouds
4:50 PM 75.2 °F 51.8 °F 44% 30.05 in 10.0 mi South 10.4 mph - N/A   Scattered Clouds
6:50 PM 68.0 °F 53.6 °F 60% 30.07 in 10.0 mi Calm Calm - N/A   Partly Cloudy
7:50 PM 64.4 °F 57.2 °F 77% 30.08 in 10.0 mi Calm Calm - N/A   Partly Cloudy
8:55 PM 62.6 °F 57.2 °F 82% 30.11 in 10.0 mi Calm Calm - 0.00 in   Clear
9:15 PM 60.8 °F 57.2 °F 88% 30.11 in 10.0 mi South 4.6 mph - 0.00 in   Clear
9:35 PM 62.6 °F 57.2 °F 82% 30.11 in 10.0 mi Calm Calm - 0.00 in   Clear
9:55 PM 60.8 °F 57.2 °F 88% 30.12 in 10.0 mi Calm Calm - 0.00 in   Clear
10:15 PM 60.8 °F 59.0 °F 94% 30.13 in 10.0 mi Calm Calm - 0.00 in   Clear
10:35 PM 60.8 °F 57.2 °F 88% 30.13 in 9.0 mi Calm Calm - 0.00 in   Clear
10:55 PM 60.8 °F 57.2 °F 88% 30.14 in 9.0 mi Calm Calm - N/A   Clear
11:15 PM 59.0 °F 59.0 °F 100% 30.14 in 10.0 mi Calm Calm - 0.00 in   Clear
11:35 PM 59.0 °F 57.2 °F 94% 30.14 in 7.0 mi Calm Calm - 0.00 in   Clear
11:55 PM 59.0 °F 59.0 °F 100% 30.14 in 8.0 mi Calm Calm - 0.00 in   Clear